Satellite-Ground Cal/Val Site Overpasses Predictions

Prediction of Satellite NPP Overpassing Cal/Val Site: Antarctic Dome C

Ground Cal/Val Site Location: Latitude: -75.10, Longitude: 123.35; Satellite-Ground Site NADIR distance within 100 km.

Table of predicted overpasses for the next 14.0 days since TLE Epoch: 1/23/2015
Interval Starting Time Ending Time Minimum Distance Time Minimum Distance (km)
1 01/24/2015 15:01:44 01/24/2015 15:02:13 01/24/2015 15:01:58 16.18
2 01/25/2015 14:43:01 01/25/2015 14:43:12 01/25/2015 14:43:06 90.89
3 01/26/2015 07:44:30 01/26/2015 07:44:57 01/26/2015 07:44:44 40.07
4 01/27/2015 07:25:41 01/27/2015 07:26:02 01/27/2015 07:25:51 70.14
5 01/29/2015 15:07:51 01/29/2015 15:08:15 01/29/2015 15:08:03 52.74
6 01/30/2015 14:49:00 01/30/2015 14:49:24 01/30/2015 14:49:12 56.45
7 01/31/2015 07:50:40 01/31/2015 07:50:59 01/31/2015 07:50:49 74.86
8 02/01/2015 07:31:43 02/01/2015 07:32:11 02/01/2015 07:31:57 33.28
9 02/03/2015 15:14:03 02/03/2015 15:14:15 02/03/2015 15:14:09 89.93
10 02/04/2015 14:55:02 02/04/2015 14:55:30 02/04/2015 14:55:16 21.33


NCC Satellite Cal/Val Overpasses Prediction Service
